Change the Weather History Date:

Tuesday, September 3, 2013

  Actual Average Record
Temperature  
Mean Temperature 82 °F -  
Max Temperature 86 °F 87 °F 91 °F (2000)
Min Temperature 78 °F 78 °F 77 °F (2002)
Cooling Degree Days 17    
Growing Degree Days 32 (Base 50)    
Moisture  
Dew Point 74 °F    
Average Humidity 74    
Maximum Humidity 84    
Minimum Humidity 61    
Precipitation  
Precipitation 0.43 in 0.17 in - ()
Sea Level Pressure  
Sea Level Pressure 29.88 in    
Wind  
Wind Speed 12 mph ()    
Max Wind Speed 20 mph    
Max Gust Speed 29 mph    
Visibility 7.9 miles    
Events Rain    
Averages and records for this station are not official NWS values.
T = Trace of Precipitation, MM = Missing Value Source: Averaged Metar Reports

Daily Weather History Graph

Daily Weather History Graph

Search for Another Location

Airport or City:

Trip Planner

Search our weather history database for the weather conditions in past years. The results will help you decide how hot, cold, wet, or windy it might be!

Date:

Astronomy

Sep. 03, 2013 Rise Set
Actual Time 5:58 AM AST 6:24 PM AST
Civil Twilight 5:36 AM AST 6:46 PM AST
Nautical Twilight 5:10 AM AST 7:12 PM AST
Astronomical Twilight 4:44 AM AST 7:38 PM AST
Moon 4:16 AM AST (9/3) 5:05 PM AST (9/3)
Length of Visible Light 13h 10m
Length of Day
12h 26m
Waning Crescent, 3% of the Moon is Illuminated
Sep 3
Waning Crescent
Sep 5
New
Sep 12
First Quarter
Sep 19
Full
Sep 26
Last Quarter

Hourly Weather History & Observations

Time (AST) Temp. Heat Index Dew Point Humidity Pressure Visibility Wind Dir Wind Speed Gust Speed Precip Events Conditions
12:00 AM 80.6 °F 85.4 °F 73.4 °F 79% 29.92 in 6.2 mi East 12.7 mph - N/A   Partly Cloudy
1:00 AM 78.8 °F - 73.4 °F 83% 29.89 in 6.2 mi East 13.8 mph - N/A   Partly Cloudy
2:00 AM 81 °F - 74 °F 74% 29.88 in 16 mi ESE 10.4 mph - -   Partly Cloudy
2:00 AM 80.6 °F 85.4 °F 73.4 °F 79% 29.86 in 6.2 mi East 11.5 mph - N/A   Scattered Clouds
3:00 AM 80.6 °F 85.4 °F 73.4 °F 79% 29.86 in 6.2 mi East 11.5 mph - N/A   Partly Cloudy
4:00 AM 80.6 °F 86.2 °F 75.2 °F 84% 29.86 in 6.2 mi East 11.5 mph - N/A Rain Light Rain Showers
5:00 AM 80 °F - 72 °F 72% 29.86 in 16 mi East 10.4 mph - - Rain Light Rain Showers
5:00 AM 80.6 °F 84.6 °F 71.6 °F 74% 29.86 in 6.2 mi East 10.4 mph - N/A   Partly Cloudy
6:00 AM 80.6 °F 84.6 °F 71.6 °F 74% 29.86 in 6.2 mi East 9.2 mph - N/A   Partly Cloudy
7:00 AM 82.4 °F 89.5 °F 75.2 °F 79% 29.89 in 6.2 mi ENE 8.1 mph - N/A   Partly Cloudy
8:00 AM 85 °F - 75 °F 64% 29.89 in 19 mi ENE 10.4 mph - -   Partly Cloudy
8:00 AM 84.2 °F 92.3 °F 75.2 °F 74% 29.89 in 6.2 mi ENE 10.4 mph - N/A   Partly Cloudy
9:00 AM 86.0 °F 95.1 °F 75.2 °F 70% 29.89 in 6.2 mi ENE 15.0 mph - N/A Rain Light Rain Showers
10:00 AM 86.0 °F 95.1 °F 75.2 °F 70% 29.92 in 6.2 mi East 17.3 mph - N/A   Mostly Cloudy
11:00 AM 84 °F - 74 °F 66% 29.92 in 9 mi East 13.8 mph - - Rain Light Rain Showers
11:00 AM 84.2 °F 90.9 °F 73.4 °F 70% 29.92 in 6.2 mi East 13.8 mph - N/A   Mostly Cloudy
11:25 AM 86.0 °F 95.1 °F 75.2 °F 70% 29.92 in 2.5 mi East 13.8 mph 28.8 mph N/A Rain Rain Showers
12:00 PM 82.4 °F 89.5 °F 75.2 °F 79% 29.89 in 6.2 mi East 13.8 mph - N/A Rain Light Rain Showers
1:00 PM 86.0 °F 96.9 °F 77.0 °F 74% 29.89 in 6.2 mi East 18.4 mph - N/A   Scattered Clouds
2:00 PM 85 °F - 76 °F 67% 29.87 in 16 mi East 17.3 mph - - Rain Light Rain Showers
2:00 PM 86.0 °F 95.1 °F 75.2 °F 70% 29.86 in 6.2 mi East 17.3 mph - N/A   Scattered Clouds
3:00 PM 86.0 °F 95.1 °F 75.2 °F 70% 29.83 in 6.2 mi East 16.1 mph - N/A   Scattered Clouds
4:00 PM 86.0 °F 95.1 °F 75.2 °F 70% 29.83 in 6.2 mi East 19.6 mph - N/A   Scattered Clouds
5:00 PM 86 °F - 74 °F 61% 29.85 in 16 mi East 19.6 mph - -   Partly Cloudy
5:00 PM 86.0 °F 95.1 °F 75.2 °F 70% 29.83 in 6.2 mi East 19.6 mph - N/A   Scattered Clouds
6:00 PM 84.2 °F 92.3 °F 75.2 °F 74% 29.86 in 6.2 mi East 16.1 mph 28.8 mph N/A   Scattered Clouds
7:00 PM 82.4 °F 88.2 °F 73.4 °F 74% 29.86 in 6.2 mi ENE 16.1 mph - N/A   Scattered Clouds
8:00 PM 83 °F - 74 °F 69% 29.90 in 12 mi East 12.7 mph - -  
8:00 PM 82.4 °F 89.5 °F 75.2 °F 79% 29.89 in 6.2 mi East 12.7 mph - N/A   Scattered Clouds
9:00 PM 82.4 °F 89.5 °F 75.2 °F 79% 29.92 in 6.2 mi East 11.5 mph 24.2 mph N/A   Scattered Clouds
9:27 PM 82.4 °F 89.5 °F 75.2 °F 79% 29.92 in 1.9 mi ENE 16.1 mph - N/A Rain Heavy Rain Showers
10:00 PM 80.6 °F 86.2 °F 75.2 °F 84% 29.92 in 6.2 mi East 11.5 mph - N/A   Scattered Clouds
11:00 PM 82 °F - 75 °F 74% 29.91 in 12 mi ENE 15.0 mph - -   Partly Cloudy
11:00 PM 82.4 °F 89.5 °F 75.2 °F 79% 29.89 in 6.2 mi ENE 15.0 mph - N/A   Scattered Clouds